Dewpoint
47 49 52 55 56 58 65 68 69 70 70 70 69 69 69 69 69 66 64 60 59 54 50 47 46 47 47 48 43 37 33 33 29 34 35 36 42 41 41 41 38 37 33
46 48 50 55 57 58 60 65 69 69 70 70 70 68 67 65 63 59 58 58 52 48 46 44 44 45 46 46 38 44 40 39 33 38 39 33 38 41 41 42 36 32 33
45 47 51 53 57 59 59 63 65 68 69 69 68 62 61 58 59 55 54 50 48 48 45 44 44 45 46 46 40 38 35 34 34 31 31 31 34 34 36 37 37 38 28
44 47 50 52 56 57 59 61 63 65 68 68 67 63 61 57 55 52 51 49 49 48 45 44 45 44 42 42 40 40 39 34 34 30 29 29 29 35 32 30 30 29 30
43 47 50 53 55 57 57 59 63 66 66 62 62 61 57 53 51 50 50 48 48 44 45 44 43 42 40 39 35 39 38 32 29 28 26 26 29 29 30 30 28 30 33
43 46 49 52 53 57 58 60 64 62 59 57 55 53 52 51 46 47 47 46 45 44 42 42 41 43 42 41 39 38 39 40 38 32 28 30 34 31 30 31 29 30 28
44 45 48 51 53 57 58 61 59 56 54 52 51 50 48 47 45 46 46 46 45 44 42 40 37 37 38 35 38 38 38 37 36 38 35 33 32 33 34 34 35 32 30
45 45 47 50 54 56 59 59 55 53 51 50 48 48 48 47 46 45 45 45 45 43 41 41 40 38 35 34 34 34 34 32 34 30 34 33 32 34 34 33 35 35 32
45 46 47 51 55 57 60 55 53 51 50 48 48 47 47 46 45 43 43 42 39 38 37 37 36 33 34 36 33 34 33 31 32 33 32 33 35 35 32 30 27 28 28
46 48 50 53 56 59 56 52 51 49 48 47 45 46 46 43 41 39 38 34 35 32 34 34 37 34 36 36 35 32 31 31 31 32 31 34 34 34 33 35 30 29 31
50 52 54 58 59 55 51 49 48 46 46 44 43 43 44 42 39 37 36 33 30 27 25 27 30 35 34 34 34 32 31 33 30 28 25 24 27 28 26 30 35 33 33
51 54 56 53 51 50 47 46 45 44 42 41 39 40 41 40 39 37 35 33 33 29 28 28 32 34 34 33 29 32 32 32 24 23 23 23 23 25 26 29 35 37 37
53 52 49 47 45 45 43 42 41 41 40 39 38 36 37 33 34 36 35 33 33 30 28 32 34 32 32 31 32 32 31 24 23 23 22 22 23 25 31 31 34 38 40
47 46 44 43 43 43 43 42 40 39 38 37 36 35 33 35 31 31 30 32 33 31 32 31 32 31 31 30 28 27 23 23 23 23 22 22 23 23 23 25 28 32 35
45 43 42 41 40 38 37 37 37 38 37 35 36 32 28 29 29 30 27 25 27 28 30 28 25 24 23 23 24 24 23 23 23 23 22 22 21 21 21 25 28 32 34
41 40 39 37 37 36 35 33 36 37 37 37 38 37 36 33 32 31 29 29 30 32 24 23 22 21 21 21 21 22 23 25 22 22 23 23 23 21 21 22 27 32 33
38 38 38 37 37 37 36 35 33 36 37 36 35 32 30 30 29 28 30 29 28 26 21 21 21 21 21 21 21 21 21 23 25 22 23 26 25 23 22 22 25 31 32
39 38 38 38 38 39 38 37 36 35 34 34 31 29 28 28 28 29 28 25 20 21 18 17 18 20 20 20 20 20 21 22 23 24 25 28 29 25 23 23 23 30 32
40 39 40 39 38 38 37 37 35 30 29 28 25 26 27 30 30 30 28 19 17 16 16 16 17 18 19 20 20 20 22 21 23 23 27 31 31 26 24 24 23 28 31
39 37 37 38 37 36 33 29 28 30 28 26 23 19 19 20 19 19 19 18 17 16 16 16 16 18 18 18 18 18 20 21 22 22 27 32 31 27 23 24 24 24 30
39 38 36 37 34 28 26 27 26 26 25 24 23 22 25 18 18 18 17 17 16 16 17 16 13 15 16 18 18 17 18 19 19 23 26 32 32 28 25 24 25 23 26
35 33 31 27 26 26 27 26 24 21 21 22 20 19 27 20 20 20 20 19 17 16 16 16 15 16 17 18 18 19 19 19 19 21 24 27 32 27 26 23 23 23 24
28 28 28 28 27 28 25 22 22 21 20 19 18 18 20 22 22 23 23 22 20 18 16 17 17 17 19 21 19 17 19 20 22 21 21 24 26 26 25 24 22 23 23
27 28 26 25 23 23 22 21 20 21 19 19 21 21 23 24 25 26 25 24 23 21 20 20 21 20 21 20 19 16 19 23 21 22 22 22 23 23 23 21 22 23 23
22 24 23 23 22 22 21 21 21 21 21 22 23 24 24 25 25 26 26 25 24 23 21 21 21 22 23 23 21 20 26 28 25 27 20 21 21 24 24 21 23 22 23
24 25 24 24 23 22 23 23 23 24 24 25 26 26 26 26 26 26 26 25 24 23 22 21 22 21 21 21 23 26 28 28 25 28 24 20 20 20 23 22 22 21 23
Lifted_Index
3 2 1 -1 -2 -4 -7 -9 -10 -10 -10 -9 -8 -7 -7 -6 -5 -3 -3 -4 -3 -3 -2 -1 1 2 3 4 7 12 15 15 13 13 14 16 17 18 18 18 18 18 18
3 3 1 -0 -2 -4 -7 -9 -10 -11 -10 -9 -8 -7 -6 -5 -3 -2 -2 -3 -3 -2 -1 -0 1 3 3 5 8 12 15 15 14 13 14 16 17 18 18 18 18 18 18
4 3 2 0 -2 -4 -6 -8 -10 -10 -10 -9 -8 -6 -4 -3 -1 -0 -1 -2 -2 -1 -0 1 3 4 5 7 11 14 16 15 14 14 15 17 18 18 18 18 18 17 17
4 3 2 1 -1 -3 -5 -7 -9 -10 -10 -9 -8 -5 -3 -1 1 2 -0 -2 -1 -0 1 2 3 5 7 11 15 16 16 15 15 15 16 17 18 18 19 18 17 16 15
4 4 3 1 -1 -3 -5 -7 -9 -10 -9 -8 -7 -5 -3 -0 1 1 -0 -1 -0 1 2 3 5 8 12 15 17 17 17 16 15 16 16 17 18 18 19 18 17 15 14
5 4 3 1 -1 -3 -5 -7 -9 -9 -9 -8 -7 -6 -4 -1 -0 -0 -1 -1 0 1 2 4 8 12 16 18 18 18 17 17 17 17 17 18 18 19 18 18 16 14 13
5 4 3 1 -1 -3 -5 -7 -8 -9 -9 -8 -7 -6 -4 -2 -1 -1 -0 1 1 2 4 6 11 15 18 19 19 18 18 18 19 19 19 19 20 19 19 17 15 14 13
5 5 3 1 -1 -3 -5 -6 -7 -8 -8 -8 -6 -5 -4 -2 -1 -0 1 1 2 4 7 11 14 17 19 19 18 18 18 19 20 21 21 21 21 20 19 17 16 15 14
5 5 3 1 -1 -3 -4 -4 -5 -6 -7 -7 -6 -4 -3 -1 0 1 1 2 3 7 11 15 17 18 19 19 18 18 18 19 21 22 22 22 21 20 19 18 16 15 14
5 4 2 -0 -2 -3 -3 -3 -4 -4 -5 -6 -5 -3 -1 0 1 2 2 3 5 10 14 17 18 19 19 19 19 19 19 20 21 21 21 21 20 19 18 17 16 15 14
3 2 1 -1 -2 -2 -2 -2 -2 -3 -4 -5 -4 -2 1 2 3 4 5 7 9 13 15 17 18 19 20 20 20 20 20 20 20 20 20 20 19 17 17 17 16 15 15
1 1 -0 -1 -2 -2 -2 -2 -2 -3 -4 -4 -3 -0 3 5 7 9 11 12 14 15 16 17 19 20 20 21 21 21 20 20 20 20 19 19 18 16 16 16 16 15 15
1 0 -0 -1 -1 -1 -2 -2 -2 -3 -3 -2 -1 3 6 10 13 15 16 16 16 16 17 18 20 20 21 21 21 21 21 20 20 19 19 18 17 16 16 16 15 15 14
1 0 -0 -1 -1 -1 -1 -1 -1 -1 -1 0 4 8 11 13 16 18 18 17 17 17 18 19 20 21 21 21 21 21 20 20 20 19 19 17 16 16 15 15 15 14 13
2 1 0 -0 -0 0 1 2 3 4 4 6 9 14 15 15 17 19 18 17 18 18 19 19 20 20 20 20 20 20 20 20 20 19 18 17 16 15 15 15 14 14 13
2 2 1 1 1 2 3 5 8 9 10 11 15 17 17 17 18 19 18 18 18 19 19 19 19 19 19 20 20 20 20 20 19 19 18 17 16 15 15 15 14 14 13
3 2 2 2 3 4 5 7 9 11 12 15 18 19 19 19 19 19 19 19 19 19 19 18 19 19 19 20 20 20 20 20 19 18 17 16 15 15 15 15 14 14 13
4 4 4 5 5 7 8 9 9 11 14 17 19 20 20 20 20 20 20 20 19 19 19 18 19 19 20 20 20 20 20 19 18 18 17 16 15 15 15 15 14 14 13
6 6 7 7 8 9 10 11 12 14 17 18 19 20 20 20 20 20 20 19 19 19 19 19 20 20 20 20 20 19 19 18 18 17 16 15 14 14 14 14 14 14 14
9 9 8 8 9 10 12 14 16 17 18 19 19 20 20 20 20 20 20 19 19 19 19 20 20 21 20 20 19 19 18 17 17 16 15 14 14 14 14 14 14 14 14
10 9 9 10 12 14 16 17 18 18 18 19 19 20 20 20 19 19 19 19 20 20 20 21 21 21 20 20 19 18 18 17 16 15 15 14 14 14 14 14 14 14 14
11 11 12 13 15 17 17 18 18 18 19 19 20 20 20 20 19 19 19 19 20 21 21 21 21 21 20 20 19 18 17 16 16 15 15 14 14 14 14 14 14 14 14
14 15 15 16 17 17 18 18 18 19 19 19 19 19 19 19 19 19 19 19 20 21 21 21 21 21 20 20 19 18 17 16 16 15 15 14 14 14 14 14 14 14 14
16 17 17 17 17 17 18 18 18 18 18 19 18 18 18 18 18 18 19 19 20 21 21 21 21 20 20 19 18 17 17 16 16 16 15 15 14 14 14 14 14 14 15
17 17 17 17 17 17 18 18 18 18 18 18 17 17 17 18 18 18 19 19 20 20 21 21 20 20 19 18 17 17 16 16 16 16 15 15 15 15 15 15 15 15 15
17 17 17 17 17 17 17 17 17 17 17 17 17 17 17 17 18 18 18 19 19 20 20 20 20 19 19 18 17 16 16 16 16 15 15 15 15 15 15 15 15 15 15